Find Starlink 5062

NORAD ID: 55637 Int'l Des: 2023-021 Owner: SPXS Country: US Constellation: starlink operational
LEOCIRCULAR

Live Position

Loading 3D Globe...

About Starlink 5062

Description loading...

Upcoming Passes

Passes for default location (London). Set your location on the main map for personalized predictions.

Altitude History

Loading altitude history...

Two-Line Element Set

1 55637U 23021K 26123.86685948 -.00001130 00000-0 -86978-4 0 9991
2 55637 70.0007 45.4477 0002992 268.8179 91.2637 14.98322266177057
Epoch: May 3, 2026 • Age: 7 hours

Current Status

Altitude 583.4 km
Velocity 7.57 km/s
Sub-Earth Point 58.94°N, 167.06°E
Launch Date Feb 17, 2023
Age 3.2 years
Type internet

Technical Details

Classification Payload
Mass 305.00 kg
Dry Mass 290.00 kg
Total Mass 305.00 kg
Length 0.20 m
Diameter 2.80 m
Span 9.00 m
Shape Box + pan
Manufacturer SPXS
Bus Type Starlink
Phase Status In Orbit
Owner/State SPXS/US

Most Searched